TimePDT,TemperatureF,Dew PointF,Humidity,Sea Level PressureIn,VisibilityMPH,Wind Direction,Wind SpeedMPH,Gust SpeedMPH,PrecipitationIn,Events,Conditions,WindDirDegrees,DateUTC
12:53 AM,34.0,24.1,67,29.71,10.0,WSW,26.5,32.2,N/A,,Mostly Cloudy,240,2013-03-17 07:53:00
1:53 AM,33.1,21.9,64,29.73,10.0,WSW,23.0,32.2,N/A,,Scattered Clouds,240,2013-03-17 08:53:00
2:53 AM,33.1,23.0,66,29.75,10.0,WSW,25.3,36.8,N/A,,Scattered Clouds,240,2013-03-17 09:53:00
3:53 AM,32.0,24.1,73,29.78,10.0,SW,23.0,28.8,N/A,,Scattered Clouds,230,2013-03-17 10:53:00
4:53 AM,30.9,23.0,72,29.78,10.0,SW,23.0,32.2,N/A,,Mostly Cloudy,230,2013-03-17 11:53:00
5:53 AM,30.0,24.1,79,29.83,10.0,SW,19.6,-,N/A,,Mostly Cloudy,220,2013-03-17 12:53:00
6:53 AM,30.0,24.1,79,29.86,10.0,SW,16.1,-,N/A,,Mostly Cloudy,220,2013-03-17 13:53:00
7:53 AM,30.9,24.1,76,29.88,10.0,SW,20.7,-,N/A,,Mostly Cloudy,230,2013-03-17 14:53:00
8:53 AM,32.0,24.1,73,29.91,10.0,SW,18.4,-,N/A,,Mostly Cloudy,230,2013-03-17 15:53:00
9:53 AM,37.0,24.1,59,29.91,10.0,SW,20.7,-,N/A,,Scattered Clouds,230,2013-03-17 16:53:00
10:53 AM,41.0,21.0,45,29.93,10.0,WSW,23.0,32.2,N/A,,Mostly Cloudy,240,2013-03-17 17:53:00
11:53 AM,43.0,19.0,38,29.95,10.0,West,23.0,32.2,N/A,,Mostly Cloudy,260,2013-03-17 18:53:00
12:53 PM,42.1,15.1,34,29.96,9.0,West,18.4,31.1,N/A,,Mostly Cloudy,270,2013-03-17 19:53:00
1:53 PM,44.1,16.0,32,29.95,10.0,West,20.7,33.4,0.00,,Mostly Cloudy,260,2013-03-17 20:53:00
2:53 PM,42.1,18.0,38,29.96,10.0,West,19.6,31.1,N/A,,Mostly Cloudy,270,2013-03-17 21:53:00
3:53 PM,44.1,21.0,40,29.97,10.0,WSW,23.0,29.9,N/A,,Scattered Clouds,250,2013-03-17 22:53:00
4:53 PM,37.9,25.0,60,29.99,7.0,West,17.3,29.9,0.00,Snow,Light Snow,280,2013-03-17 23:53:00
5:53 PM,43.0,17.1,35,29.97,10.0,West,23.0,-,0.00,,Scattered Clouds,270,2013-03-18 00:53:00
6:53 PM,39.0,19.0,45,29.99,10.0,WSW,13.8,-,N/A,,Scattered Clouds,250,2013-03-18 01:53:00
7:53 PM,36.0,16.0,44,30.00,10.0,WSW,11.5,-,N/A,,Partly Cloudy,240,2013-03-18 02:53:00
8:53 PM,35.1,17.1,48,30.01,10.0,WSW,11.5,-,N/A,,Partly Cloudy,240,2013-03-18 03:53:00
9:53 PM,33.1,18.0,54,30.01,10.0,WSW,12.7,-,N/A,,Partly Cloudy,250,2013-03-18 04:53:00
10:53 PM,34.0,17.1,50,30.01,10.0,WSW,17.3,-,N/A,,Scattered Clouds,240,2013-03-18 05:53:00
11:53 PM,30.9,19.9,64,30.02,10.0,SW,13.8,-,N/A,,Mostly Cloudy,220,2013-03-18 06:53:00